Location: Carbonear
(47.7333°N, 53.2500°W)
Time: 21:27:59
(UTC+00:00)

STRAND 1 - Pass Details

Date: 04 December 2022
Orbit: 768 x 779 km, 98.4° (Epoch: 01 February)

Event Time Altitude Azimuth Distance (km) Brightness Sun altitude
Exits shadow 23:29:25 16° 228° (SW) 1,932 ? -37.3°
Drops below altitude 10° 23:30:27 10° 223° (SW) 2,305 ? -37.5°
Sets 23:32:50 0° 217° (SW) 3,228 ? -37.9°
